W2DEN Weather Reports


Display with metric or nautical units.
time (UTC)temp
F
wind
direction
speed
MPH
gust
MPH
rain 1hr
in
rain 24hr
in
rain mn
in
humidity
%
barometer
mb
20260507124216 65 158 1.0 1.0 0.00 0.29 0.29 93 1012.9
20260507123216 64 0.0 0.0 0.00 0.29 0.29 93 1012.5
20260507122216 64 0.0 0.0 0.01 0.29 0.29 93 1011.8
20260507121217 64 0.0 0.0 0.03 0.29 0.29 93 1011.5
20260507120216 64 0.0 0.0 0.05 0.29 0.29 93 1011.5
20260507115216 64 0.0 0.0 0.07 0.29 0.29 93 1010.9
20260507114216 64 0.0 0.0 0.10 0.29 0.29 92 1010.6
20260507113216 64 0.0 0.0 0.13 0.29 0.29 92 1011.0
20260507112216 64 158 1.0 2.0 0.14 0.28 0.28 91 1011.6
20260507111236 65 0.0 2.0 0.12 0.26 0.26 92 1013.2
20260507110217 66 0.0 0.0 0.15 0.24 0.24 92 1013.7
20260507105217 67 0.0 1.0 0.16 0.22 0.22 92 1013.8
20260507104217 67 23 1.0 2.0 0.16 0.19 0.19 92 1014.3
20260507103257 68 0.0 0.0 0.15 0.16 0.16 93 1014.2
20260507102217 68 0.0 0.0 0.14 0.14 0.14 93 1013.8
20260507101216 69 0.0 0.0 0.14 0.14 0.14 92 1013.9
20260507100238 69 0.0 0.0 0.09 0.09 0.09 91 1014.7
20260507095217 69 0.0 1.0 0.06 0.06 0.06 90 1015.1
20260507094216 69 0.0 0.0 0.03 0.03 0.03 88 1015.1
20260507093216 70 0.0 0.0 0.01 0.01 0.01 86 1015.3
20260507092216 70 0.0 0.0 0.00 0.00 0.00 85 1015.5
20260507091217 71 0.0 0.0 0.00 0.00 0.00 83 1014.6
20260507090217 71 0.0 0.0 0.00 0.00 0.00 81 1013.9
20260507085216 71 0.0 0.0 0.00 0.00 0.00 81 1013.7
20260507084216 71 0.0 0.0 0.00 0.00 0.00 81 1013.2
20260507083216 72 0.0 0.0 0.00 0.00 0.00 81 1012.7
20260507082237 72 0.0 0.0 0.00 0.00 0.00 80 1012.9
20260507081216 72 0.0 1.0 0.00 0.00 0.00 80 1012.3
20260507080216 71 158 2.0 7.0 0.00 0.00 0.00 82 1012.4
20260507075216 71 23 1.0 3.0 0.00 0.00 0.00 84 1012.6
20260507074216 70 0.0 0.0 0.00 0.00 0.00 85 1012.3
20260507073216 70 0.0 0.0 0.00 0.00 0.00 85 1012.1
20260507072257 70 0.0 0.0 0.00 0.00 0.00 86 1011.6
20260507071216 69 0.0 0.0 0.00 0.00 0.00 86 1012.2
20260507070218 69 0.0 0.0 0.00 0.00 0.00 87 1012.4
20260507065216 69 0.0 0.0 0.00 0.00 0.00 86 1012.3
20260507064216 69 0.0 0.0 0.00 0.00 0.00 86 1012.4
20260507063216 69 0.0 0.0 0.00 0.00 0.00 85 1012.5
20260507062216 70 0.0 0.0 0.00 0.00 0.00 84 1013.1
20260507061216 70 0.0 0.0 0.00 0.00 0.00 84 1013.2
20260507060216 70 0.0 0.0 0.00 0.00 0.00 84 1013.2
20260507055216 70 0.0 0.0 0.00 0.00 0.00 82 1013.5
20260507054216 70 0.0 0.0 0.00 0.00 0.00 82 1013.6
20260507053216 70 0.0 0.0 0.00 0.00 0.00 81 1013.6
20260507052217 71 0.0 0.0 0.00 0.00 0.00 81 1013.5
20260507051216 71 0.0 0.0 0.00 0.00 0.00 81 1013.7
20260507050216 71 0.0 0.0 0.00 0.00 0.00 79 1013.6
20260507045236 71 0.0 0.0 0.00 0.00 0.00 80 1013.7
20260507044216 72 0.0 0.0 0.00 0.00 0.00 79 1013.9
20260507043216 72 0.0 0.0 0.00 0.00 0.00 76 1013.8
20260507042236 72 0.0 0.0 0.00 0.00 0.00 77 1013.8
20260507041216 72 0.0 0.0 0.00 0.00 0.00 77 1013.6
20260507040216 72 0.0 0.0 0.00 0.00 0.00 77 1013.8
20260507035237 73 0.0 0.0 0.00 0.00 0.00 75 1013.8
20260507034257 73 0.0 0.0 0.00 0.00 0.00 75 1013.8
20260507033217 73 0.0 2.0 0.00 0.00 0.00 75 1013.8
20260507032217 73 0.0 0.0 0.00 0.00 0.00 75 1013.8
20260507031237 74 0.0 1.0 0.00 0.00 0.00 74 1013.9
20260507030216 74 0.0 1.0 0.00 0.00 0.00 74 1013.7
20260507025216 74 0.0 0.0 0.00 0.00 0.00 73 1013.7
20260507024217 74 0.0 0.0 0.00 0.00 0.00 73 1013.6
20260507023216 75 0.0 0.0 0.00 0.00 0.00 72 1013.3
20260507022216 75 0.0 0.0 0.00 0.00 0.00 72 1013.0
20260507021217 75 158 1.0 3.0 0.00 0.00 0.00 73 1013.2
20260507020217 75 0.0 1.0 0.00 0.00 0.00 72 1013.1
20260507015216 75 158 1.0 2.0 0.00 0.00 0.00 72 1013.1
20260507014217 76 0.0 1.0 0.00 0.00 0.00 74 1013.2
20260507013218 76 0.0 0.0 0.00 0.00 0.00 73 1013.3
20260507012216 76 0.0 1.0 0.00 0.00 0.00 74 1013.4
20260507011216 76 0.0 0.0 0.00 0.00 0.00 75 1013.3
20260507010216 76 0.0 0.0 0.00 0.00 0.00 75 1013.5
20260507005216 76 0.0 0.0 0.00 0.00 0.00 75 1013.6
20260507004217 76 0.0 0.0 0.00 0.00 0.00 74 1013.6
20260507003216 76 0.0 0.0 0.00 0.00 0.00 73 1013.7
20260507002216 77 0.0 0.0 0.00 0.00 0.00 72 1013.7
20260507001217 78 0.0 0.0 0.00 0.00 0.00 71 1013.5
20260507000216 78 0.0 0.0 0.00 0.00 0.00 69 1013.6
20260506235216 79 0.0 0.0 0.00 0.00 0.00 69 1013.5
20260506234216 80 0.0 1.0 0.00 0.00 0.00 69 1013.4
20260506233236 80 0.0 0.0 0.00 0.00 0.00 68 1013.3
20260506232216 81 0.0 0.0 0.00 0.00 0.00 67 1013.0
20260506231217 81 0.0 1.0 0.00 0.00 0.00 65 1013.1
20260506230216 81 0.0 2.0 0.00 0.00 0.00 65 1013.1
20260506225217 82 0.0 1.0 0.00 0.00 0.00 65 1013.1
20260506224218 82 158 1.0 1.0 0.00 0.00 0.00 63 1013.2
20260506223216 83 158 1.0 1.0 0.00 0.00 0.00 61 1013.0
20260506222216 84 158 1.0 2.0 0.00 0.00 0.00 60 1013.1
20260506221217 84 0.0 1.0 0.00 0.00 0.00 60 1013.2
20260506220257 84 0.0 1.0 0.00 0.00 0.00 61 1013.3
20260506215217 84 0.0 1.0 0.00 0.00 0.00 60 1013.2
20260506214236 84 158 1.0 1.0 0.00 0.00 0.00 59 1013.3
20260506213217 85 158 1.0 3.0 0.00 0.00 0.00 58 1013.2
20260506212216 87 0.0 1.0 0.00 0.00 0.00 54 1013.3
20260506211258 89 158 1.0 2.0 0.00 0.00 0.00 49 1013.3
20260506210218 90 0.0 1.0 0.00 0.00 0.00 41 1013.3
20260506205216 90 0.0 1.0 0.00 0.00 0.00 43 1013.5
20260506204217 90 0.0 0.0 0.00 0.00 0.00 43 1013.5
20260506203216 90 0.0 1.0 0.00 0.00 0.00 44 1013.5
20260506202237 91 158 1.0 2.0 0.00 0.00 0.00 40 1013.6
20260506201216 92 0.0 1.0 0.00 0.00 0.00 40 1013.8
20260506200216 92 68 1.0 2.0 0.00 0.00 0.00 41 1013.8
20260506195236 92 45 1.0 1.0 0.00 0.00 0.00 42 1014.0
20260506194216 91 45 1.0 2.0 0.00 0.00 0.00 40 1014.0
20260506193216 91 45 1.0 2.0 0.00 0.00 0.00 40 1014.0
20260506192256 91 23 1.0 2.0 0.00 0.00 0.00 40 1014.0
20260506191216 90 45 1.0 2.0 0.00 0.00 0.00 41 1014.3
20260506190216 90 23 1.0 2.0 0.00 0.00 0.00 41 1014.5
20260506185216 89 0 1.0 3.0 0.00 0.00 0.00 40 1014.7
20260506184216 90 135 1.0 2.0 0.00 0.00 0.00 42 1014.9
20260506183236 89 158 1.0 2.0 0.00 0.00 0.00 46 1015.0
20260506182216 89 0.0 1.0 0.00 0.00 0.00 44 1015.2
20260506181236 89 23 1.0 2.0 0.00 0.00 0.00 42 1015.2
20260506180217 88 45 1.0 2.0 0.00 0.00 0.00 44 1015.4
20260506175216 87 68 2.0 8.0 0.00 0.00 0.00 46 1015.5
20260506174216 86 23 2.0 3.0 0.00 0.00 0.00 46 1015.7
20260506173216 85 158 1.0 2.0 0.00 0.00 0.00 49 1015.8
20260506172216 85 68 1.0 2.0 0.00 0.00 0.00 49 1016.2
20260506171216 86 0.0 2.0 0.00 0.00 0.00 46 1016.5
20260506170216 85 0.0 1.0 0.00 0.00 0.00 49 1016.7
20260506165216 85 23 1.0 2.0 0.00 0.00 0.00 50 1016.5
20260506164216 85 23 1.0 2.0 0.00 0.00 0.00 50 1016.7
20260506163236 83 23 1.0 1.0 0.00 0.00 0.00 50 1016.8
20260506162216 82 0.0 1.0 0.00 0.00 0.00 57 1016.9
20260506161236 82 0.0 2.0 0.00 0.00 0.00 56 1016.8
20260506160216 81 0.0 1.0 0.00 0.00 0.00 57 1016.9
20260506155216 81 0.0 1.0 0.00 0.00 0.00 60 1017.1
20260506154217 81 23 1.0 1.0 0.00 0.00 0.00 57 1017.0
20260506153216 81 23 1.0 2.0 0.00 0.00 0.00 59 1016.9
20260506152216 80 23 1.0 2.0 0.00 0.00 0.00 58 1017.0
20260506151216 80 23 1.0 2.0 0.00 0.00 0.00 57 1017.0
20260506150216 80 338 1.0 4.0 0.00 0.00 0.00 60 1017.2
20260506145216 79 0.0 0.0 0.00 0.00 0.00 63 1017.3
20260506144216 78 68 1.0 2.0 0.00 0.00 0.00 62 1017.1
20260506143216 77 45 1.0 1.0 0.00 0.00 0.00 66 1017.0
20260506142216 77 0.0 1.0 0.00 0.00 0.00 65 1016.8
20260506141216 77 0.0 1.0 0.00 0.00 0.00 64 1016.7
20260506140216 76 0.0 1.0 0.00 0.00 0.00 64 1016.6
20260506135256 76 23 1.0 2.0 0.00 0.00 0.00 68 1016.7
20260506134216 75 0.0 0.0 0.00 0.00 0.00 69 1016.7
20260506133216 74 180 1.0 1.0 0.00 0.00 0.00 71 1016.5
20260506132216 72 0.0 1.0 0.00 0.00 0.00 73 1016.5
20260506131236 71 0.0 0.0 0.00 0.00 0.00 74 1016.4
20260506130216 71 0.0 1.0 0.00 0.00 0.00 74 1016.3
20260506125216 70 0.0 0.0 0.00 0.00 0.00 78 1016.3